STARLINK-35066, 65386

Orbit data source: Space-Track

STARLINK-35066, 65386 is a payload satellite owned by SpaceX/Seattle (US) in SSO that was launched on Sat, 30 Aug 2025 UTC via an FALCON 9 launch vehicle from the Air Force Western Test Range (AFWTR). Payload-class satellites include a variety of spacecraft equipped with specific instruments for various scientific and technological missions. These include communications satellites like Starlink; space stations such as the ISS; scientific satellites like the Hubble; Earth observation satellites from companies like Planet Labs, Umbra, and HawkEye 360; GPS; miniature CubeSats for education and research; and military/defense satellites.

Loading next visibility...
Identifier
65386, 2025-191H
Orbit
SSO
Country
Flag of USUS
Related business
Manufacturer
SpaceX/Seattle
Mission
Operational Commercial Communications
Bus & Motor
STARLINK V2MO, Unknown motor
Mass
575 kg wet, ~530 kg dry
Launch date (UTC)
2025-08-30 (7 months ago)
Launch vehicle
FALCON 9
Launch site
Air Force Western Test Range (AFWTR)
Object type
Payload
Rocket body
Debris
Shape & HBR
Box + 2 Pan, 17.7 m
Radar Cross Section
36.964 m², Large (>1 m²)

Expand to show TLE details & history
Last TLE update: 15 hours ago

TLE from 15 hours ago
0 STARLINK-35066
1 65386U 25191H   26093.61709615  .00011825  00000-0  82179-3 0  9998
2 65386  97.6015 326.1465 0002579  91.1713 268.9809 15.05674073 34029
Epoch: 2026-04-03T14:48Z
TLE epoch observation values (Epoch: 2026-04-03T14:48:37.107Z)
Latitude
-0.00004°
Longitude
-87.95676°
Altitude
552.535 km
Speed
7.585 km/s
True Right ascension
21h 44m 35s
True Declination
0° 00' 00"
Sunlit
Object was in daylight at epoch
Visualization orbit readout
Latitude
Unknown
Longitude
Unknown
Altitude
Unknown
Speed
Unknown
Apparent Right ascension
Unknown
Apparent Declination
Unknown
Sunlit
N/A
Visualization observer readout
Local Sidereal Time
11:24:47
Azimuth
Unknown
Elevation
Unknown
Doppler factor
Unknown
Orbital elements
Apogee altitude
548.217 km
Perigee altitude
544.645 km
Semi-major axis
6,924.568 km
Eccentricity
0.00026
Inclination
97.6015°
RAAN
326.1465°
Arg. of periapsis
91.1713°
True anomaly
268.95135°
Mean anomaly
268.9809°
Eccentric anomaly
268.96613°
Mean motion
3.76664 °/min
Orbital period
95.58 mins
BSTAR
0.00082179
Loading maneuver chart data...
Computing Atmospheric mass density...
Loading historical data...
Loading historical data...
Loading historical data...
Loading historical data...
Loading historical data...
Loading historical data...
Loading historical data...

Documentation

Showing up to 5 results
|